Time,TemperatureF,DewpointF,PressureIn,WindDirection,WindDirectionDegrees,WindSpeedMPH,WindSpeedGustMPH,Humidity,HourlyPrecipIn,Conditions,Clouds,dailyrainin,SolarRadiationWatts/m^2,SoftwareType,DateUTC
2013-08-20 00:03:00,67.0,63.0,-100.00,NNW,337,2.0,4.0,86,0.00,,,0.00,0.000000,,2013-08-20 04:03:00,
2013-08-20 00:13:00,67.0,63.0,-100.00,NNW,337,2.0,4.0,86,0.00,,,0.00,0.000000,,2013-08-20 04:13:00,
2013-08-20 00:23:00,67.0,63.0,-100.00,NNW,337,2.0,4.0,86,0.00,,,0.00,0.000000,,2013-08-20 04:23:00,
2013-08-20 00:54:00,66.0,61.0,-100.00,NW,318,2.0,4.0,85,0.00,,,0.00,0.000000,,2013-08-20 04:54:00,
2013-08-20 01:02:00,66.0,61.0,-100.00,NW,318,2.0,4.0,85,0.00,,,0.00,0.000000,,2013-08-20 05:02:00,
2013-08-20 01:12:00,66.0,61.0,-100.00,NW,318,2.0,4.0,85,0.00,,,0.00,0.000000,,2013-08-20 05:12:00,
2013-08-20 01:22:00,66.0,61.0,-100.00,NW,318,2.0,4.0,85,0.00,,,0.00,0.000000,,2013-08-20 05:22:00,
2013-08-20 01:52:00,66.0,61.0,-100.00,NNW,330,2.0,5.0,83,0.00,,,0.00,0.000000,,2013-08-20 05:52:00,
2013-08-20 02:02:00,66.0,61.0,-100.00,NNW,330,2.0,5.0,83,0.00,,,0.00,0.000000,,2013-08-20 06:02:00,
2013-08-20 02:11:00,66.0,61.0,-100.00,NNW,330,2.0,5.0,83,0.00,,,0.00,0.000000,,2013-08-20 06:11:00,
2013-08-20 02:21:00,66.0,61.0,-100.00,NNW,330,2.0,5.0,83,0.00,,,0.00,0.000000,,2013-08-20 06:21:00,
2013-08-20 02:52:00,65.0,60.0,-100.00,NW,322,2.0,6.0,85,0.00,,,0.00,0.000000,,2013-08-20 06:52:00,
2013-08-20 03:01:00,65.0,60.0,-100.00,NW,322,2.0,6.0,85,0.00,,,0.00,0.000000,,2013-08-20 07:01:00,
2013-08-20 03:11:00,65.0,60.0,-100.00,NW,322,2.0,6.0,85,0.00,,,0.00,0.000000,,2013-08-20 07:11:00,
2013-08-20 03:22:00,65.0,60.0,-100.00,NW,322,2.0,6.0,85,0.00,,,0.00,0.000000,,2013-08-20 07:22:00,
2013-08-20 03:52:00,64.0,61.0,-100.00,NW,324,1.0,5.0,89,0.00,,,0.00,0.000000,,2013-08-20 07:52:00,
2013-08-20 04:02:00,64.0,61.0,-100.00,NW,324,1.0,5.0,89,0.00,,,0.00,0.000000,,2013-08-20 08:02:00,
2013-08-20 04:11:00,64.0,61.0,-100.00,NW,324,1.0,5.0,89,0.00,,,0.00,0.000000,,2013-08-20 08:11:00,
2013-08-20 04:21:00,64.0,61.0,-100.00,NW,324,1.0,5.0,89,0.00,,,0.00,0.000000,,2013-08-20 08:21:00,
2013-08-20 04:52:00,62.0,60.0,-100.00,NNW,329,2.0,5.0,92,0.00,,,0.00,0.000000,,2013-08-20 08:52:00,
2013-08-20 05:01:00,62.0,60.0,-100.00,NNW,329,2.0,5.0,92,0.00,,,0.00,0.000000,,2013-08-20 09:01:00,
2013-08-20 05:11:00,62.0,60.0,-100.00,NNW,329,2.0,5.0,92,0.00,,,0.00,0.000000,,2013-08-20 09:11:00,
2013-08-20 05:21:00,62.0,60.0,-100.00,NNW,329,2.0,5.0,92,0.00,,,0.00,0.000000,,2013-08-20 09:21:00,
2013-08-20 05:53:00,61.0,59.0,-100.00,WNW,290,1.0,3.0,94,0.00,,,0.00,0.000000,,2013-08-20 09:53:00,
2013-08-20 06:04:00,61.0,59.0,-100.00,WNW,290,1.0,3.0,94,0.00,,,0.00,0.000000,,2013-08-20 10:04:00,
2013-08-20 06:12:00,61.0,59.0,-100.00,WNW,290,1.0,3.0,94,0.00,,,0.00,0.000000,,2013-08-20 10:12:00,
2013-08-20 06:23:00,61.0,59.0,-100.00,WNW,290,1.0,3.0,94,0.00,,,0.00,0.000000,,2013-08-20 10:23:00,
2013-08-20 06:52:00,61.0,59.0,-100.00,NW,315,0.0,3.0,94,0.00,,,0.00,7.000000,,2013-08-20 10:52:00,
2013-08-20 07:02:00,61.0,59.0,-100.00,NW,315,0.0,3.0,94,0.00,,,0.00,7.000000,,2013-08-20 11:02:00,
2013-08-20 07:11:00,61.0,59.0,-100.00,NW,315,0.0,3.0,94,0.00,,,0.00,7.000000,,2013-08-20 11:11:00,
2013-08-20 07:22:00,61.0,59.0,-100.00,NW,315,0.0,3.0,94,0.00,,,0.00,7.000000,,2013-08-20 11:22:00,
2013-08-20 07:52:00,66.0,63.0,-100.00,NW,306,1.0,4.0,89,0.00,,,0.00,83.000000,,2013-08-20 11:52:00,
2013-08-20 08:01:00,66.0,63.0,-100.00,NW,306,1.0,4.0,89,0.00,,,0.00,83.000000,,2013-08-20 12:01:00,
2013-08-20 08:12:00,66.0,63.0,-100.00,NW,306,1.0,4.0,89,0.00,,,0.00,83.000000,,2013-08-20 12:12:00,
2013-08-20 08:21:00,66.0,63.0,-100.00,NW,306,1.0,4.0,89,0.00,,,0.00,83.000000,,2013-08-20 12:21:00,
2013-08-20 09:11:00,74.0,64.0,-100.00,WNW,296,2.0,4.0,70,0.00,,,0.00,255.000000,,2013-08-20 13:11:00,
2013-08-20 09:22:00,74.0,64.0,-100.00,WNW,296,2.0,4.0,70,0.00,,,0.00,255.000000,,2013-08-20 13:22:00,
2013-08-20 10:21:00,80.0,63.0,-100.00,NNE,20,2.0,5.0,57,0.00,,,0.00,421.000000,,2013-08-20 14:21:00,
2013-08-20 11:25:00,-999.0,-99.9,-100.00,SE,143,4.0,8.0,53,0.00,,,0.00,654.000000,,2013-08-20 15:25:00,
2013-08-20 11:54:00,80.0,61.0,-100.00,SE,143,4.0,8.0,53,0.00,,,0.00,654.000000,,2013-08-20 15:54:00,
2013-08-20 12:04:00,80.0,61.0,-100.00,SE,143,4.0,8.0,53,0.00,,,0.00,654.000000,,2013-08-20 16:04:00,
2013-08-20 12:15:00,80.0,61.0,-100.00,SE,143,4.0,8.0,53,0.00,,,0.00,654.000000,,2013-08-20 16:15:00,
2013-08-20 12:53:00,83.0,62.0,-100.00,SE,136,3.0,8.0,49,0.00,,,0.00,768.000000,,2013-08-20 16:53:00,
2013-08-20 13:03:00,83.0,62.0,-100.00,SE,136,3.0,8.0,49,0.00,,,0.00,768.000000,,2013-08-20 17:03:00,
2013-08-20 13:12:00,83.0,62.0,-100.00,SE,136,3.0,8.0,49,0.00,,,0.00,768.000000,,2013-08-20 17:12:00,
2013-08-20 13:24:00,83.0,62.0,-100.00,SE,136,3.0,8.0,49,0.00,,,0.00,768.000000,,2013-08-20 17:24:00,
2013-08-20 13:52:00,83.0,62.0,-100.00,SE,129,4.0,10.0,49,0.00,,,0.00,778.000000,,2013-08-20 17:52:00,
2013-08-20 14:02:00,83.0,62.0,-100.00,SE,129,4.0,10.0,49,0.00,,,0.00,778.000000,,2013-08-20 18:02:00,
2013-08-20 14:12:00,83.0,62.0,-100.00,SE,129,4.0,10.0,49,0.00,,,0.00,778.000000,,2013-08-20 18:12:00,
2013-08-20 14:22:00,83.0,62.0,-100.00,SE,129,4.0,10.0,49,0.00,,,0.00,778.000000,,2013-08-20 18:22:00,
2013-08-20 14:52:00,82.0,62.0,-100.00,SE,125,4.0,10.0,51,0.00,,,0.00,714.000000,,2013-08-20 18:52:00,
2013-08-20 15:01:00,82.0,62.0,-100.00,SE,125,4.0,10.0,51,0.00,,,0.00,714.000000,,2013-08-20 19:01:00,
2013-08-20 15:11:00,82.0,62.0,-100.00,SE,125,4.0,10.0,51,0.00,,,0.00,714.000000,,2013-08-20 19:11:00,
2013-08-20 15:22:00,82.0,62.0,-100.00,SE,125,4.0,10.0,51,0.00,,,0.00,714.000000,,2013-08-20 19:22:00,
2013-08-20 15:53:00,81.0,63.0,-100.00,SE,142,3.0,10.0,54,0.00,,,0.00,611.000000,,2013-08-20 19:53:00,
2013-08-20 16:03:00,81.0,63.0,-100.00,SE,142,3.0,10.0,54,0.00,,,0.00,611.000000,,2013-08-20 20:03:00,
2013-08-20 16:12:00,81.0,63.0,-100.00,SE,142,3.0,10.0,54,0.00,,,0.00,611.000000,,2013-08-20 20:12:00,
2013-08-20 16:22:00,81.0,63.0,-100.00,SE,142,3.0,10.0,54,0.00,,,0.00,611.000000,,2013-08-20 20:22:00,
2013-08-20 16:52:00,79.0,61.0,-100.00,ESE,121,4.0,9.0,54,0.00,,,0.00,472.000000,,2013-08-20 20:52:00,
2013-08-20 17:03:00,79.0,61.0,-100.00,ESE,121,4.0,9.0,54,0.00,,,0.00,472.000000,,2013-08-20 21:03:00,
2013-08-20 17:11:00,79.0,61.0,-100.00,ESE,121,4.0,9.0,54,0.00,,,0.00,472.000000,,2013-08-20 21:11:00,
2013-08-20 17:22:00,79.0,61.0,-100.00,ESE,121,4.0,9.0,54,0.00,,,0.00,472.000000,,2013-08-20 21:22:00,
2013-08-20 18:14:00,78.0,62.0,-100.00,SSE,157,3.0,9.0,58,0.00,,,0.00,363.000000,,2013-08-20 22:14:00,
2013-08-20 18:24:00,78.0,62.0,-100.00,SSE,157,3.0,9.0,58,0.00,,,0.00,363.000000,,2013-08-20 22:24:00,
2013-08-20 18:54:00,75.0,62.0,-100.00,SE,136,3.0,5.0,65,0.00,,,0.00,205.000000,,2013-08-20 22:54:00,
2013-08-20 19:03:00,75.0,62.0,-100.00,SE,136,3.0,5.0,65,0.00,,,0.00,205.000000,,2013-08-20 23:03:00,
2013-08-20 19:12:00,75.0,62.0,-100.00,SE,136,3.0,5.0,65,0.00,,,0.00,205.000000,,2013-08-20 23:12:00,
2013-08-20 19:22:00,75.0,62.0,-100.00,SE,136,3.0,5.0,65,0.00,,,0.00,205.000000,,2013-08-20 23:22:00,
2013-08-20 19:53:00,67.0,62.0,-100.00,SSE,152,1.0,5.0,84,0.00,,,0.00,28.000000,,2013-08-20 23:53:00,
2013-08-20 20:02:00,67.0,62.0,-100.00,SSE,152,1.0,5.0,84,0.00,,,0.00,28.000000,,2013-08-21 00:02:00,
2013-08-20 20:12:00,67.0,62.0,-100.00,SSE,152,1.0,5.0,84,0.00,,,0.00,28.000000,,2013-08-21 00:12:00,
2013-08-20 20:23:00,67.0,62.0,-100.00,SSE,152,1.0,5.0,84,0.00,,,0.00,28.000000,,2013-08-21 00:23:00,
2013-08-20 20:52:00,64.0,62.0,-100.00,NNW,335,0.0,3.0,93,0.00,,,0.00,2.000000,,2013-08-21 00:52:00,
2013-08-20 21:02:00,64.0,62.0,-100.00,NNW,335,0.0,3.0,93,0.00,,,0.00,2.000000,,2013-08-21 01:02:00,
2013-08-20 21:11:00,64.0,62.0,-100.00,NNW,335,0.0,3.0,93,0.00,,,0.00,2.000000,,2013-08-21 01:11:00,
2013-08-20 21:22:00,64.0,62.0,-100.00,NNW,335,0.0,3.0,93,0.00,,,0.00,2.000000,,2013-08-21 01:22:00,
2013-08-20 21:52:00,64.0,63.0,-100.00,NNW,329,0.0,2.0,95,0.00,,,0.00,0.000000,,2013-08-21 01:52:00,
2013-08-20 22:02:00,64.0,63.0,-100.00,NNW,329,0.0,2.0,95,0.00,,,0.00,0.000000,,2013-08-21 02:02:00,
2013-08-20 22:12:00,64.0,63.0,-100.00,NNW,329,0.0,2.0,95,0.00,,,0.00,0.000000,,2013-08-21 02:12:00,
2013-08-20 22:22:00,64.0,63.0,-100.00,NNW,329,0.0,2.0,95,0.00,,,0.00,0.000000,,2013-08-21 02:22:00,
2013-08-20 22:52:00,63.0,62.0,-100.00,NNE,29,0.0,2.0,96,0.00,,,0.00,0.000000,,2013-08-21 02:52:00,
2013-08-20 23:02:00,63.0,62.0,-100.00,NNE,29,0.0,2.0,96,0.00,,,0.00,0.000000,,2013-08-21 03:02:00,
2013-08-20 23:12:00,63.0,62.0,-100.00,NNE,29,0.0,2.0,96,0.00,,,0.00,0.000000,,2013-08-21 03:12:00,
2013-08-20 23:23:00,63.0,62.0,-100.00,NNE,29,0.0,2.0,96,0.00,,,0.00,0.000000,,2013-08-21 03:23:00,
2013-08-20 23:55:00,63.0,62.0,-100.00,NNW,341,2.0,2.0,96,0.00,,,0.00,0.000000,,2013-08-21 03:55:00,